Flag for Canada Weather past 2 weeks in Saint John, New Brunswick, Canada

Now
64 °F

Sprinkles. Fog.


Feels Like: 64 °F
Forecast: 54 / 73 °F
Wind: 7 mph from Southwest

Location: Saint John

Current Time: Jul 31, 2014 at 2:57:25 AM

Latest Report: Jul 31, 2014 at 2:00 AM


Visibility: 2 mi

Pressure: 30.03 "Hg

Humidity: 100%

Dew point: 64 °F

Location of Saint JohnLocation

Historic Weather in Saint John — Graph

°F

Saint John temperature yesterday

Maximum temperature yesterday: 72 °F (at 3:00 PM)
Minimum temperature yesterday: 54 °F (at 4:00 AM)
Average temperature yesterday: 61 °F

Past Weeks' High & Low Weather Summary

 TemperatureHumidityPressure
High81 °F (Jul 19, 3:00 PM)100% (Jul 16, 1:00 AM)30.27 "Hg (Jul 16, 1:00 AM)
Low48 °F (Jul 26, 5:00 AM)39% (Jul 19, 2:00 PM)29.59 "Hg (Jul 29, 3:00 AM)
Average63 °F88%29.96 "Hg
* Reported Jul 16 1:00 AM — Jul 31 1:00 AM, Saint John, Weather by CustomWeather, © 2014

Note: Actual official high and low records may vary slightly from our data, if they occured in-between our weather recording intervals... More about our weather records

Advertising

Saint John weather history for previous 24 hours

 ConditionsComfort  
Time TempWeatherWind HumidityBarometerVisibility
1:00 AM
Jul 31
64 °FSprinkles. Fog.6 mph100%30.03 "Hg3 mi
12:00 AM64 °FSprinkles. Fog.8 mph100%30.03 "Hg3 mi
11:00 PM
Jul 30
64 °FOvercast.5 mph100%30.03 "Hg3 mi
10:00 PM63 °FSprinkles. Fog.9 mph100%30.04 "Hg3 mi
9:00 PM63 °FSprinkles. Overcast.8 mph94%30.05 "Hg15 mi
8:00 PM63 °FSprinkles. Mostly cloudy.6 mph100%30.05 "Hg15 mi
7:00 PM63 °FSprinkles. Mostly cloudy.2 mph94%30.06 "Hg10 mi
6:00 PM63 °FMore clouds than sun.5 mph94%30.07 "Hg10 mi
5:00 PM68 °FSprinkles. Mostly cloudy.6 mph88%30.08 "Hg10 mi
4:00 PM72 °FMostly cloudy.7 mph65%30.06 "Hg15 mi
3:00 PM72 °FPartly sunny.2 mph69%30.07 "Hg15 mi
2:00 PM70 °FBroken clouds.7 mph69%30.08 "Hg15 mi
1:00 PM68 °FPartly sunny.7 mph78%30.09 "Hg15 mi
12:00 PM66 °FPartly sunny.8 mph83%30.10 "Hg15 mi
11:52 AM64 °FPartly sunny.3 mph88%30.09 "Hg15 mi
11:00 AM61 °FFog.3 mph100%30.09 "Hg6 mi
10:00 AM59 °FFog.7 mph100%30.09 "Hg1 mi
9:54 AM59 °FFog.7 mph100%30.09 "Hg1 mi
9:00 AM59 °FFog.8 mph100%30.08 "Hg0 mi
8:00 AM57 °FFog.6 mph100%30.05 "Hg1 mi
7:53 AM59 °FFog.5 mph100%30.06 "Hg1 mi
7:00 AM57 °FFog.5 mph100%30.05 "Hg0 mi
6:00 AM55 °FFog.7 mph100%30.04 "Hg0 mi
5:00 AM54 °FFog.5 mph100%30.03 "Hg1 mi
4:00 AM54 °FFog.No wind100%30.01 "Hg0 mi
3:00 AM55 °FFog.3 mph100%30.00 "Hg0 mi
2:00 AM55 °FFog.2 mph100%29.99 "Hg0 mi
Weather by CustomWeather, © 2014

See weather overviewHow to use our weather pages